Weather Roundup
Issued by NWS Corpus Christi, TX

Home | Current Version | Previous Version | Text Only | Print | Product List | Glossary On
Versions: 1 2 3 4 5 6 7 8 9 10 11 12 13 14 15 16 17 18 19 20 21 22 23 24 25 26 27 28 29 30 31 32 33 34 35 36 37 38 39 40 41 42 43 44 45 46 47 48 49 50
000
ASUS44 KCRP 290010
HRRCRP

SOUTH TEXAS REGIONAL WEATHER ROUNDUP
NATIONAL WEATHER SERVICE CORPUS CHRISTI TX
700 PM CDT SUN MAY 28 2017


TXZ229>244-290100-
...CORPUS CHRISTI AREA OBSERVATIONS...

CITY           SKY/WX    TMP DP  RH WIND       PRES   REMARKS
CORPUS CHRISTI PTSUNNY   85  77  77 SE16G23   29.80R HX  95
NAS CORPUS CHR NOT AVBL
ROCKPORT       MOSUNNY   83  76  79 SE18      29.81R HX  91
KINGSVILLE NAS PTSUNNY   86  78  77 SE16      29.81R HX  98
ALICE          MOSUNNY   87  75  67 SE17G25   29.80R HX  96
ORANGE GROVE   CLOUDY    86  77  74 SE17      29.83R HX  97
FALFURRIAS     MOSUNNY   88  76  67 E13G23    29.78R HX  99
$$

...VICTORIA AREA OBSERVATIONS...

CITY           SKY/WX    TMP DP  RH WIND       PRES   REMARKS
VICTORIA       CLOUDY    85  75  72 SE10      29.84S HX  93
BEEVILLE       PTSUNNY   85  76  73 SE12G17   29.83S HX  95
PLEASANTON     CLOUDY    87  73  63 SE9G20    29.83R HX  94
SAN ANTONIO    CLOUDY    86  73  65 SE10      29.87R HX  93
$$

...LAREDO AREA OBSERVATIONS...

CITY           SKY/WX    TMP DP  RH WIND       PRES   REMARKS
LAREDO         CLOUDY    96  75  50 E22       29.74R HX 108
COTULLA        CLOUDY    94  72  48 E17G25    29.76F HX 102
DEL RIO        CLOUDY    76  66  71 NE9       29.84F
MCALLEN        MOSUNNY   91  76  61 SE22G31   29.75F HX 103
HEBBRONVILLE   CLOUDY    90  73  57 SE18G29   29.80R HX  98
$$

...OTHER TEXAS OBSERVATIONS...

CITY           SKY/WX    TMP DP  RH WIND       PRES   REMARKS
BROWNSVILLE    CLOUDY    86  78  77 E20       29.79F HX  98
HOUSTON        PTSUNNY   87  74  64 S14       29.80F HX  95
COL. STATION   PTSUNNY   87  75  67 S12       29.80F HX  96
AUSTIN         CLOUDY    84  68  58 N23G33    29.88R THUNDER
WACO           CLOUDY    77  71  82 N13       29.90R
FORT WORTH     CLOUDY    79  68  69 N6        29.89F
WICHITA FALLS  MOSUNNY   83  55  38 N15       29.95F
LUBBOCK        MOSUNNY   82  37  20 NE8G20    30.07F
EL PASO        MOSUNNY   86  28  12 VRB3      30.01F
$$

...MARINE OBSERVATIONS...

STATION/POSITION TIME  SKY/WX   TEMP    WIND        PRES    VSBY  WAVE   SWELL
                                AIR SEA DIR/SP/G                  HT/PER HT/PER
                 (UTC)          (F)     (DEG/KT/KT) (MB)    (MI)  (FT/S) (FT/S)
PORT ARANSAS     2300            80 83  120/ 18/ 21 1009.3F
BUOY 90 E PORT A 2250            80 80  100/ 14/ 16 1011.0          4/ 7   3/ 7
BUOY 45 SE BAFFI 2350            81     130/ 19/ 23 1007.8F         4/ 7
BUOY 200 E PT IS 2250            82 81  150/ 10/ 12 1011.9          4/ 6   3/ 6
BUOY 15 E GALVES 2250            80 81  150/ 12/ 16 1011.5          3/ 6   2/ 6
$$




USA.gov is the U.S. government's official web portal to all federal, state and local government web resources and services.